Flag for Germany Weather past 2 weeks in Berlin, Berlin, Germany

Now
77 °F

Mild.


Feels Like: 78 °F
Forecast: 76 / 95 °F
Wind: 1 mph from Southeast

Location: Berlin-Tempelhof

Current Time: Jul 4, 2015 at 8:13:48 AM

Latest Report: Jul 4, 2015 at 8:00 AM


Visibility: N/A

Pressure: 30.17 "Hg

Humidity: 50%

Dew point: 56 °F

Location of BerlinLocation

Historic Weather in Berlin — Graph

°F

Berlin temperature yesterday

Maximum temperature yesterday: 93 °F (at 4:00 PM)
Minimum temperature yesterday: 64 °F (at 5:00 AM)
Average temperature yesterday: 80 °F

Past Weeks' High & Low Weather Summary

 TemperatureHumidityPressure
High93 °F (Jul 3, 4:00 PM)97% (Jun 24, 5:00 AM)30.29 "Hg (Jun 24, 5:00 AM)
Low51 °F (Jun 24, 3:00 AM)26% (Jul 3, 4:00 PM)29.62 "Hg (Jun 23, 2:00 AM)
Average65 °F65%30.07 "Hg
* Reported Jun 19 7:00 AM — Jul 4 7:00 AM, Berlin, Weather by CustomWeather, © 2015

Note: Actual official high and low records may vary slightly from our data, if they occured in-between our weather recording intervals... More about our weather records

Advertising

Berlin weather history for previous 24 hours

 ConditionsComfort  
Time TempWeatherWind HumidityBarometerVisibility
7:00 AM
Sat, Jul 4
73 °FMild.2 mph53%30.18 "HgN/A
6:00 AM71 °FMild.2 mph54%30.18 "HgN/A
5:00 AM72 °FMild.2 mph49%30.18 "HgN/A
4:00 AM73 °FMild.2 mph47%30.19 "HgN/A
3:00 AM74 °FMild.3 mph44%30.20 "HgN/A
2:00 AM75 °FMild.3 mph42%30.21 "HgN/A
1:00 AM77 °FPleasantly warm.2 mph39%30.22 "HgN/A
12:00 AM79 °FPleasantly warm.3 mph38%30.23 "HgN/A
11:00 PM
Fri, Jul 3
81 °FPleasantly warm.2 mph38%30.22 "HgN/A
10:00 PM83 °FPleasantly warm.3 mph36%30.22 "HgN/A
9:00 PM85 °FPleasantly warm.3 mph36%30.20 "HgN/A
8:00 PM90 °FHot.2 mph31%30.20 "HgN/A
7:00 PM91 °FHot.2 mph32%30.20 "HgN/A
6:00 PM91 °FHot.2 mph29%30.20 "HgN/A
5:00 PM93 °FExtremely hot.3 mph26%30.21 "HgN/A
4:00 PM93 °FExtremely hot.3 mph26%30.21 "HgN/A
3:00 PM92 °FHot.5 mph27%30.21 "HgN/A
2:00 PM90 °FHot.5 mph29%30.24 "HgN/A
1:00 PM89 °FHot.2 mph30%30.27 "HgN/A
12:00 PM87 °FPleasantly warm.3 mph34%30.27 "HgN/A
11:00 AM83 °FPleasantly warm.3 mph39%30.27 "HgN/A
10:00 AM81 °FWarm.5 mph42%30.27 "HgN/A
9:00 AM76 °FMild.5 mph49%30.27 "HgN/A
8:00 AM72 °FMild.3 mph54%30.27 "HgN/A
Weather by CustomWeather, © 2015

See weather overviewHow to use our weather pages